[[{"header":{"parameterUnit":"m.s-1","parameterCategory":2,"la1":30.2991,"la2":30.254,"lo1":-89.0895,"lo2":-89.0444,"dy":0.0017,"dx":0.0017,"nx":28,"ny":28,"refTime":"2024-08-22T03:00:00:Z","depth":"0","parameterNumber":2,"parameterNumberName":"U-component_of_CURRENTS"},"data":[0,0,0,0,0,0,0,0,0,0,0,0,0,0,0,0,0,0,0,0,0,0,0,0,0,0,0,0,0,0,0,0,0,0,0,0,0,0,0,0,0,0,0,0,0,0,0,0,0,0,0,0,0,0,0,0,0,0,0.1719,0.172,0,0.1789,0.179,0.1791,0.1801,0.1801,0.18,0.18,0.1853,0.1855,0.1857,0,0,0,0,0,0,0,0,0,0,0,0,0,0.157,0.1572,0.1719,0.172,0.1721,0.1789,0.179,0.1791,0.1801,0.1801,0.18,0.18,0.1853,0.1855,0.1857,0,0,0,0,0,0,0,0,0,0,0,0,0,0.1634,0.1573,0.1718,0.1736,0.1739,0.1789,0.179,0.1791,0.1801,0.1801,0.18,0.18,0.1852,0.1854,0.1857,0.1885,0,0,0.1865,0.1866,0,0,0,0,0,0,0,0,0.1631,0.1639,0.1733,0.1735,0.1738,0.1788,0.1757,0.1823,0.1802,0.1775,0.18,0.1799,0.1832,0.1836,0.1847,0.1888,0.189,0.1866,0.1867,0.1868,0.1869,0,0,0,0,0,0,0,0.1626,0.1636,0.1744,0.1734,0.1737,0.1733,0.1742,0.1769,0.1803,0.1777,0.1779,0.1791,0.1833,0.1845,0.1849,0.1891,0.1865,0.1868,0.1869,0.1871,0.2063,0.2066,0,0,0,0,0,0,0.1625,0.1633,0.1742,0.1746,0.1685,0.1737,0.1746,0.1771,0.1804,0.1809,0.1792,0.1791,0.184,0.1846,0.1851,0.1944,0.1868,0.1871,0.1872,0.2059,0.2064,0.2067,0,0,0,0,0,0,0.1622,0.1635,0.1739,0.1692,0.1705,0.174,0.1768,0.1772,0.1783,0.1815,0.182,0.1797,0.184,0.1847,0.1887,0.1943,0.1872,0.1874,0.2055,0.2061,0.2066,0.2093,0,0,0,0,0,0,0.1618,0.1634,0.1647,0.1693,0.1708,0.1768,0.1769,0.1774,0.1793,0.1793,0.1822,0.1826,0.184,0.1883,0.189,0.1946,0.1877,0.2051,0.2058,0.2064,0.2087,0.2098,0.2107,0,0,0,0,0,0.1612,0.1636,0.1647,0.166,0.1727,0.1768,0.1775,0.1796,0.1794,0.1801,0.1829,0.1825,0.1931,0.1887,0.1894,0.1952,0.2048,0.2056,0.2063,0.2083,0.2096,0.2107,0,0,0,0,0,0,0.1578,0.1642,0.1654,0.1696,0.1728,0.1771,0.1785,0.1796,0.1824,0.1826,0.1846,0.1853,0.1922,0.1935,0.1886,0.2035,0.1999,0.2009,0.2012,0.2025,0.2035,0.2057,0.1879,0,0,0,0,0,0.1578,0.1613,0.1664,0.1696,0.1714,0.1747,0.1765,0.1781,0.1814,0.1825,0.1847,0.1895,0.1964,0.1986,0.2036,0.2093,0.213,0.2148,0.2158,0.2166,0.2195,0.2294,0.2315,0.2093,0.2093,0.2093,0,0,0.1572,0.1613,0.1632,0.169,0.1717,0.1752,0.1756,0.1788,0.1825,0.1828,0.1877,0.1922,0.1988,0.2067,0.2101,0.2079,0.2248,0.2176,0.2182,0.2207,0.2304,0.2326,0.2345,0.2099,0.2098,0.2097,0,0,0.1574,0.1616,0.164,0.1674,0.1721,0.1753,0.1761,0.1806,0.1833,0.1886,0.1923,0.2007,0.2063,0.2148,0.2195,0.2295,0.2299,0.2307,0.2368,0.2463,0.2481,0.2498,0.2556,0.2578,0.2308,0.2308,0.2308,0,0.1559,0.1608,0.165,0.1683,0.1721,0.1753,0.1789,0.1828,0.1879,0.1928,0.1906,0.2077,0.2123,0.2269,0.2315,0.2321,0.2349,0.2303,0.2473,0.249,0.2507,0.2563,0.2586,0.2311,0.231,0.231,0.231,0,0.1582,0.1619,0.1638,0.17,0.1745,0.178,0.1847,0.1892,0.1929,0.198,0.2108,0.2179,0.2289,0.2328,0.2352,0.2511,0.2484,0.2469,0.2429,0.253,0.2583,0.2607,0.2314,0.2313,0.2312,0.2312,0,0,0.1553,0.1635,0.1641,0.1678,0.1761,0.1802,0.1886,0.1985,0.2046,0.2119,0.2215,0.2371,0.2409,0.2471,0.2517,0.2608,0.2751,0.2586,0.259,0.2622,0.2931,0.2882,0.2903,0.2743,0.2748,0.2752,0.2913,0,0.1554,0.1611,0.1665,0.1733,0.1775,0.1858,0.1929,0.2029,0.2107,0.2199,0.2328,0.2428,0.246,0.2511,0.2619,0.2723,0.2818,0.2708,0.285,0.2855,0.2781,0.2932,0.2881,0.3017,0.2936,0.294,0.2943,0,0.1557,0.1603,0.1658,0.1766,0.1792,0.1838,0.1982,0.2055,0.221,0.227,0.2409,0.2479,0.2671,0.2645,0.2899,0.2815,0.2894,0.2957,0.2963,0.2932,0.2853,0.2912,0.3064,0.3003,0.298,0.2977,0.2974,0,0.1518,0.1606,0.1651,0.1686,0.1801,0.1857,0.1933,0.2078,0.2152,0.2321,0.2378,0.2585,0.2681,0.2838,0.2987,0.2951,0.3215,0.3177,0.321,0.3204,0.3203,0.319,0.3301,0.3358,0.3358,0.3357,0.3357,0,0.1509,0.1549,0.1629,0.1655,0.1725,0.1829,0.1918,0.2022,0.2158,0.2259,0.2405,0.2508,0.2732,0.2893,0.3019,0.32,0.3255,0.3271,0.3271,0.3208,0.3194,0.3171,0.3122,0.3363,0.3362,0.3361,0.336,0,0.1464,0.151,0.1565,0.1668,0.17,0.1756,0.1885,0.1957,0.2084,0.2217,0.2273,0.2488,0.2713,0.2903,0.316,0.3233,0.3335,0.3438,0.3331,0.3316,0.3273,0.3226,0.3226,0.3127,0.3529,0.3529,0.353,0,0.1449,0.1464,0.1545,0.1577,0.162,0.1706,0.1764,0.1905,0.1988,0.2208,0.2272,0.2502,0.2679,0.3017,0.321,0.3436,0.3337,0.3472,0.3419,0.3312,0.3262,0.3094,0.2998,0.3426,0.3426,0.3425,0.3425,0,0.1427,0.1437,0.1482,0.1527,0.158,0.1646,0.1746,0.179,0.1973,0.2086,0.2269,0.2423,0.2751,0.2987,0.3249,0.3375,0.3317,0.3464,0.3415,0.3264,0.3035,0.2923,0.3241,0.342,0.342,0.3421,0.3421,0.3421,0.1406,0.1419,0.1455,0.1504,0.1549,0.1597,0.1643,0.1751,0.1865,0.206,0.2218,0.2443,0.2781,0.3163,0.3249,0.3361,0.3282,0.3355,0.3331,0.3187,0.3027,0.3309,0.3434,0.3434,0.3435,0.3435,0.3435,0,0.1404,0.1417,0.1445,0.1498,0.1521,0.1557,0.1643,0.1693,0.1807,0.2011,0.2185,0.2548,0.2805,0.3049,0.3303,0.3274,0.3118,0.3204,0.2993,0.2922,0.327,0.3199,0.3203,0.3203,0.3203,0.3203,0.3203,0.3203,0.1413,0.1428,0.1438,0.1464,0.149,0.1517,0.1553,0.1626,0.1759,0.199,0.2203,0.2411,0.2787,0.3142,0.3237,0.3183,0.2947,0.2846,0.277,0.3068,0.308,0.3091,0.3015,0.2979,0.2979,0.2331,0.2327,0.2323]},{"header":{"parameterUnit":"m.s-1","parameterCategory":2,"la1":30.2991,"la2":30.254,"lo1":-89.0895,"lo2":-89.0444,"dy":0.0017,"dx":0.0017,"nx":28,"ny":28,"refTime":"2024-08-22T03:00:00:Z","depth":"0","parameterNumber":3,"parameterNumberName":"V-component_of_CURRENTS"},"data":[0,0,0,0,0,0,0,0,0,0,0,0,0,0,0,0,0,0,0,0,0,0,0,0,0,0,0,0,0,0,0,0,0,0,0,0,0,0,0,0,0,0,0,0,0,0,0,0,0,0,0,0,0,0,0,0,0,0,-0.0511,-0.0512,0,-0.0585,-0.0585,-0.0586,-0.0642,-0.0643,-0.0644,-0.0645,-0.0603,-0.0601,-0.0599,0,0,0,0,0,0,0,0,0,0,0,0,0,-0.0329,-0.0332,-0.051,-0.0512,-0.0513,-0.0585,-0.0585,-0.0586,-0.0642,-0.0643,-0.0644,-0.0645,-0.0604,-0.0602,-0.0599,0,0,0,0,0,0,0,0,0,0,0,0,0,-0.0401,-0.0333,-0.051,-0.0554,-0.0559,-0.0585,-0.0585,-0.0586,-0.0641,-0.0643,-0.0645,-0.0646,-0.0605,-0.0602,-0.0599,-0.0549,0,0,-0.0589,-0.0588,0,0,0,0,0,0,0,0,-0.0397,-0.0407,-0.0546,-0.0551,-0.0557,-0.0611,-0.0507,-0.057,-0.0641,-0.0604,-0.0645,-0.0647,-0.0598,-0.0595,-0.0599,-0.0547,-0.0545,-0.0589,-0.0587,-0.0586,-0.0585,0,0,0,0,0,0,0,-0.0392,-0.0403,-0.0534,-0.0548,-0.0554,-0.054,-0.0552,-0.0518,-0.0585,-0.0608,-0.0613,-0.063,-0.0599,-0.0602,-0.0599,-0.0545,-0.0589,-0.0586,-0.0585,-0.0583,-0.0371,-0.0367,0,0,0,0,0,0,-0.0397,-0.0399,-0.0532,-0.0537,-0.0485,-0.0543,-0.0556,-0.0587,-0.0588,-0.0592,-0.0629,-0.0632,-0.0607,-0.0602,-0.0597,-0.0474,-0.0586,-0.0583,-0.0581,-0.0375,-0.037,-0.0366,0,0,0,0,0,0,-0.0393,-0.0409,-0.0529,-0.0473,-0.0488,-0.0546,-0.0579,-0.0588,-0.0591,-0.0606,-0.0607,-0.0623,-0.0608,-0.0602,-0.0549,-0.0475,-0.0582,-0.0579,-0.0379,-0.0373,-0.0368,-0.0268,0,0,0,0,0,0,-0.0388,-0.0407,-0.0411,-0.0474,-0.0492,-0.0519,-0.0579,-0.0589,-0.0602,-0.0607,-0.0601,-0.06,-0.0609,-0.0554,-0.0546,-0.0473,-0.0576,-0.0384,-0.0377,-0.037,-0.0276,-0.0259,-0.0245,0,0,0,0,0,-0.0381,-0.0378,-0.0411,-0.0426,-0.0503,-0.0518,-0.0523,-0.0565,-0.06,-0.0577,-0.0579,-0.06,-0.0503,-0.0549,-0.0541,-0.0465,-0.0388,-0.0379,-0.0371,-0.0283,-0.0262,-0.0245,0,0,0,0,0,0,-0.029,-0.0386,-0.0423,-0.0448,-0.0472,-0.0529,-0.0516,-0.0553,-0.0541,-0.0542,-0.0564,-0.056,-0.0481,-0.0482,-0.0533,-0.0378,-0.0442,-0.0431,-0.0377,-0.0359,-0.0343,-0.0313,-0.0574,0,0,0,0,0,-0.0277,-0.0304,-0.0378,-0.0388,-0.0403,-0.0457,-0.0466,-0.0496,-0.0509,-0.0508,-0.0507,-0.0485,-0.0436,-0.0411,-0.0375,-0.0297,-0.031,-0.0235,-0.022,-0.0207,-0.0174,-0.0154,-0.0135,-0.0338,-0.0338,-0.0338,0,0,-0.0244,-0.0298,-0.0313,-0.037,-0.0396,-0.0377,-0.0463,-0.0467,-0.043,-0.0498,-0.0432,-0.0432,-0.0404,-0.0317,-0.028,-0.0312,-0.0155,-0.0197,-0.0186,-0.0159,-0.0143,-0.0124,-0.0107,-0.0332,-0.0333,-0.0334,0,0,-0.018,-0.0239,-0.0236,-0.0251,-0.0291,-0.0309,-0.0306,-0.035,-0.0347,-0.0298,-0.0324,-0.0284,-0.0226,-0.0189,-0.0162,-0.0033,-0.0078,-0.0017,0.0088,0.0107,0.0123,0.0137,0.0139,0.0153,-0.0007,-0.0007,-0.0006,0,-0.0132,-0.0152,-0.0225,-0.0213,-0.0204,-0.027,-0.0228,-0.0222,-0.0234,-0.0203,-0.0254,-0.0153,-0.0153,-0.0027,0.001,0.0004,-0.0008,0.0006,0.0123,0.0137,0.0149,0.0149,0.0162,-0.0001,-0.0001,-0.0002,-0.0003,0,-0.0069,-0.0072,-0.006,-0.0069,-0.0053,-0.003,-0.0041,-0.0006,-0.0018,-0.002,0.0073,0.0063,0.0122,0.0134,0.0108,0.0224,0.0179,0.013,0.0065,0.0175,0.0168,0.018,0.0008,0.0006,0.0004,0.0002,0,0,-0.0001,-0.0015,-0.0011,0.0017,0.0022,0.0044,0.0132,0.0191,0.0255,0.0255,0.0344,0.04,0.0362,0.0392,0.0363,0.0377,0.0433,0.0296,0.0294,0.0281,0.0463,0.0368,0.037,0.0388,0.0391,0.0394,0.0418,0,0.0075,0.0124,0.0109,0.0207,0.0239,0.0241,0.0332,0.0384,0.0411,0.0483,0.0488,0.0553,0.0473,0.049,0.0501,0.0458,0.0471,0.0431,0.0376,0.0375,0.0262,0.0385,0.0317,0.0328,0.0429,0.0431,0.0432,0,0.0137,0.0164,0.0248,0.0333,0.0352,0.042,0.0549,0.0615,0.0703,0.072,0.0776,0.0755,0.0817,0.0698,0.0704,0.0675,0.0593,0.0535,0.0533,0.0424,0.0304,0.0239,0.0345,0.0137,0.045,0.0449,0.0447,0,0.0198,0.027,0.0346,0.0367,0.0452,0.0526,0.0595,0.0691,0.0761,0.0862,0.091,0.0962,0.098,0.0922,0.0799,0.0756,0.0765,0.0685,0.0531,0.0522,0.0449,0.0428,0.0336,0.0686,0.0686,0.0686,0.0686,0,0.0267,0.0332,0.0379,0.0415,0.055,0.0589,0.0731,0.0806,0.0907,0.1014,0.1022,0.11,0.1028,0.1009,0.0884,0.0759,0.0834,0.0591,0.0541,0.0481,0.0464,0.0263,0.0161,0.0687,0.0687,0.0687,0.0687,0,0.0311,0.0332,0.0423,0.0523,0.0566,0.0658,0.0794,0.0889,0.0977,0.1117,0.1154,0.1219,0.12,0.1101,0.1007,0.0861,0.0623,0.067,0.0597,0.0538,0.018,0.0087,-0.0004,-0.0093,0.053,0.0528,0.0527,0,0.0339,0.0378,0.0481,0.0541,0.0589,0.0713,0.0801,0.0913,0.1008,0.1187,0.1261,0.1298,0.1334,0.1173,0.0928,0.0728,0.0556,0.0509,0.0416,0.0188,0.0049,-0.0005,-0.0077,0.036,0.0357,0.0355,0.0353,0,0.0405,0.0423,0.0494,0.0597,0.0694,0.0805,0.0937,0.1023,0.1169,0.1288,0.1443,0.1493,0.1335,0.1127,0.0829,0.0654,0.0343,0.0451,0.0252,-0.0042,-0.0137,-0.0258,0.03,0.0333,0.0335,0.0336,0.0337,0.0338,0.0462,0.0518,0.0588,0.0698,0.0783,0.0903,0.1021,0.115,0.1314,0.1525,0.155,0.1648,0.1302,0.0889,0.0635,0.0091,0.0151,-0.0078,-0.0153,-0.0173,-0.0309,0.0194,0.0133,0.0134,0.0135,0.0136,0.0136,0,0.0561,0.061,0.0694,0.0822,0.0906,0.0945,0.1121,0.1247,0.1445,0.16,0.1728,0.157,0.1117,0.0668,-0.0044,-0.0425,-0.0543,-0.0624,-0.0714,-0.0744,-0.0268,-0.0331,-0.0541,-0.0541,-0.0541,-0.0541,-0.054,-0.054,0.0629,0.0725,0.0758,0.0914,0.0988,0.1146,0.1254,0.1428,0.157,0.1743,0.1783,0.1791,0.1385,0.0145,-0.0745,-0.0952,-0.1183,-0.1247,-0.1326,-0.1034,-0.0989,-0.0945,-0.103,-0.1382,-0.1383,-0.178,-0.1784,-0.1788]}],[{"header":{"parameterUnit":"m.s-1","parameterCategory":2,"la1":30.2991,"la2":30.254,"lo1":-89.0895,"lo2":-89.0444,"dy":0.0017,"dx":0.0017,"nx":28,"ny":28,"refTime":"2024-08-22T03:00:00:Z","depth":"2","parameterNumber":2,"parameterNumberName":"U-component_of_CURRENTS"},"data":[0,0,0,0,0,0,0,0,0,0,0,0,0,0,0,0,0,0,0,0,0,0,0,0,0,0,0,0,0,0,0,0,0,0,0,0,0,0,0,0,0,0,0,0,0,0,0,0,0,0,0,0,0,0,0,0,0,0,0.1643,0.1644,0,0.1705,0.1706,0.1707,0.17,0.1698,0.1697,0.1696,0.173,0.1732,0.1734,0,0,0,0,0,0,0,0,0,0,0,0,0,0.1529,0.1531,0.1643,0.1644,0.1645,0.1705,0.1706,0.1707,0.17,0.1698,0.1697,0.1696,0.1729,0.1732,0.1734,0,0,0,0,0,0,0,0,0,0,0,0,0,0.1585,0.1532,0.1643,0.1647,0.1648,0.1705,0.1706,0.1707,0.17,0.1698,0.1697,0.1695,0.1728,0.1731,0.1734,0.1787,0,0,0.1743,0.1744,0,0,0,0,0,0,0,0,0.1582,0.1589,0.1646,0.1647,0.1648,0.1691,0.1678,0.1732,0.1701,0.1682,0.1696,0.1694,0.1715,0.1719,0.1737,0.1788,0.179,0.1743,0.1745,0.1746,0.1747,0,0,0,0,0,0,0,0.1578,0.1587,0.1669,0.1647,0.1648,0.1649,0.1655,0.1688,0.1708,0.1684,0.1683,0.1688,0.1715,0.1734,0.1737,0.179,0.1743,0.1746,0.1748,0.1749,0.183,0.1831,0,0,0,0,0,0,0.1569,0.1583,0.1667,0.1671,0.1608,0.1652,0.1659,0.1681,0.1708,0.171,0.1689,0.1687,0.173,0.1734,0.1738,0.1782,0.1746,0.1749,0.1751,0.183,0.183,0.1831,0,0,0,0,0,0,0.1567,0.1577,0.1665,0.1626,0.1637,0.1656,0.168,0.1683,0.1702,0.1712,0.1714,0.1705,0.1729,0.1734,0.1768,0.1783,0.1751,0.1753,0.1829,0.183,0.183,0.1881,0,0,0,0,0,0,0.1563,0.1576,0.1592,0.1626,0.1639,0.1698,0.1681,0.1685,0.1707,0.1705,0.1727,0.1728,0.1728,0.1764,0.1771,0.1787,0.1755,0.1829,0.183,0.183,0.1879,0.1883,0.1887,0,0,0,0,0,0.1559,0.1585,0.1593,0.1602,0.166,0.1698,0.1706,0.1713,0.1709,0.1724,0.1737,0.1727,0.1772,0.1768,0.1776,0.1792,0.1828,0.1829,0.183,0.1877,0.1882,0.1887,0,0,0,0,0,0,0.1538,0.1587,0.1596,0.1634,0.1663,0.1696,0.1711,0.1723,0.1749,0.1746,0.1752,0.1755,0.1785,0.1784,0.1779,0.1813,0.1792,0.1795,0.1825,0.183,0.1834,0.1844,0.1758,0,0,0,0,0,0.1544,0.1578,0.1617,0.1646,0.1663,0.1692,0.171,0.172,0.1745,0.1754,0.1769,0.1779,0.1798,0.181,0.1824,0.1861,0.1855,0.1869,0.1873,0.1876,0.1888,0.1896,0.1903,0.1834,0.1834,0.1834,0,0,0.1539,0.1573,0.1589,0.1644,0.1668,0.1699,0.1699,0.1731,0.1748,0.1756,0.1785,0.1802,0.1811,0.1841,0.1853,0.1843,0.189,0.1877,0.1881,0.1891,0.1898,0.1905,0.1911,0.1834,0.1834,0.1834,0,0,0.1542,0.1583,0.1606,0.164,0.1681,0.1708,0.1719,0.1759,0.1767,0.1812,0.1807,0.1833,0.1872,0.1875,0.1883,0.1921,0.1912,0.1921,0.1958,0.1966,0.1972,0.1977,0.1968,0.1972,0.1923,0.1924,0.1924,0,0.153,0.1575,0.1617,0.1649,0.1674,0.1712,0.1738,0.1763,0.1806,0.1811,0.182,0.1875,0.1885,0.1914,0.1932,0.1931,0.1935,0.1942,0.1973,0.1978,0.1982,0.1972,0.1976,0.1926,0.1926,0.1926,0.1925,0,0.1548,0.1588,0.1606,0.1663,0.1697,0.1731,0.177,0.1794,0.1819,0.1839,0.1878,0.191,0.1938,0.1946,0.1964,0.2,0.1991,0.1978,0.1964,0.1993,0.1979,0.1982,0.193,0.1929,0.1928,0.1927,0,0,0.1514,0.16,0.1606,0.1637,0.171,0.174,0.1773,0.1811,0.183,0.1874,0.1902,0.1953,0.1976,0.1987,0.2006,0.2031,0.2071,0.2037,0.2036,0.2034,0.209,0.2086,0.2088,0.2076,0.2077,0.2078,0.2064,0,0.1513,0.1571,0.1615,0.1671,0.1709,0.1755,0.1784,0.182,0.1858,0.1895,0.1924,0.197,0.1987,0.2024,0.2049,0.2075,0.2085,0.2076,0.2057,0.2056,0.2054,0.2094,0.1975,0.1954,0.2067,0.2067,0.2068,0,0.151,0.1561,0.1606,0.1685,0.1703,0.1741,0.1799,0.1834,0.1882,0.1908,0.1956,0.1991,0.2048,0.2058,0.2103,0.2105,0.2106,0.2115,0.2114,0.2099,0.2059,0.1944,0.1955,0.2073,0.2072,0.2072,0.2072,0,0.1465,0.155,0.1586,0.1616,0.1707,0.1729,0.1782,0.1836,0.1855,0.1933,0.1966,0.2022,0.2072,0.2091,0.2131,0.2126,0.2171,0.2145,0.2126,0.2123,0.2012,0.1999,0.2157,0.2157,0.2157,0.2157,0.2157,0,0.1448,0.1483,0.1574,0.1598,0.1646,0.1722,0.1762,0.1813,0.1875,0.1907,0.1984,0.2021,0.2095,0.213,0.2138,0.2157,0.2165,0.2147,0.2131,0.2025,0.2014,0.2109,0.2103,0.2156,0.2156,0.2157,0.2157,0,0.1395,0.1448,0.1502,0.1597,0.1624,0.1667,0.175,0.1779,0.1856,0.1907,0.1939,0.2031,0.21,0.2143,0.2183,0.2169,0.2177,0.2167,0.204,0.2011,0.2114,0.2112,0.2141,0.2141,0.2141,0.2141,0.2141,0,0.138,0.1397,0.1482,0.1515,0.1563,0.1631,0.1666,0.1752,0.1786,0.19,0.1918,0.2021,0.2067,0.213,0.2154,0.2162,0.2175,0.2036,0.2007,0.2137,0.2118,0.2115,0.2113,0.1862,0.1859,0.1857,0.1856,0,0.136,0.1376,0.1419,0.1474,0.1523,0.1567,0.1638,0.165,0.1753,0.1794,0.1868,0.1921,0.203,0.2019,0.2066,0.2042,0.2036,0.2,0.2164,0.1902,0.1878,0.1858,0.1864,0.1839,0.1841,0.1842,0.1843,0.1844,0.1341,0.1355,0.1396,0.1444,0.1487,0.1515,0.1536,0.1582,0.1611,0.1678,0.1762,0.1814,0.1877,0.1908,0.1866,0.1863,0.1976,0.1893,0.1897,0.1903,0.1891,0.1871,0.1827,0.1828,0.1829,0.1831,0.1832,0,0.1328,0.1342,0.1374,0.1421,0.1434,0.1482,0.1517,0.1501,0.1503,0.1595,0.1641,0.1566,0.1598,0.1664,0.1653,0.1665,0.1622,0.1595,0.1527,0.1548,0.1565,0.1532,0.1374,0.1372,0.137,0.1368,0,0,0.1324,0.1329,0.1333,0.1354,0.139,0.1396,0.1407,0.1358,0.1393,0.137,0.1413,0.1556,0.1652,0.1493,0.1483,0.1436,0.1473,0.1389,0.1767,0.1711,0.1725,0.1761,0.1738,0,0,0,0,0]},{"header":{"parameterUnit":"m.s-1","parameterCategory":2,"la1":30.2991,"la2":30.254,"lo1":-89.0895,"lo2":-89.0444,"dy":0.0017,"dx":0.0017,"nx":28,"ny":28,"refTime":"2024-08-22T03:00:00:Z","depth":"2","parameterNumber":3,"parameterNumberName":"V-component_of_CURRENTS"},"data":[0,0,0,0,0,0,0,0,0,0,0,0,0,0,0,0,0,0,0,0,0,0,0,0,0,0,0,0,0,0,0,0,0,0,0,0,0,0,0,0,0,0,0,0,0,0,0,0,0,0,0,0,0,0,0,0,0,0,-0.05,-0.0501,0,-0.0576,-0.0576,-0.0577,-0.0627,-0.0628,-0.0628,-0.0629,-0.0641,-0.0641,-0.0641,0,0,0,0,0,0,0,0,0,0,0,0,0,-0.0336,-0.0339,-0.05,-0.0501,-0.0502,-0.0575,-0.0576,-0.0577,-0.0627,-0.0628,-0.0629,-0.0629,-0.0641,-0.0641,-0.0641,0,0,0,0,0,0,0,0,0,0,0,0,0,-0.0407,-0.034,-0.05,-0.0538,-0.0543,-0.0575,-0.0576,-0.0577,-0.0627,-0.0628,-0.0629,-0.063,-0.0642,-0.0641,-0.0641,-0.0621,0,0,-0.064,-0.064,0,0,0,0,0,0,0,0,-0.0403,-0.0412,-0.0531,-0.0536,-0.0541,-0.0595,-0.0523,-0.059,-0.0627,-0.0592,-0.0629,-0.063,-0.0621,-0.0623,-0.0632,-0.0621,-0.0622,-0.064,-0.064,-0.0639,-0.0639,0,0,0,0,0,0,0,-0.0398,-0.0409,-0.0527,-0.0533,-0.0538,-0.053,-0.0542,-0.0536,-0.0597,-0.0595,-0.06,-0.0612,-0.0623,-0.0632,-0.0632,-0.0622,-0.064,-0.0639,-0.0639,-0.0639,-0.0629,-0.0629,0,0,0,0,0,0,-0.0397,-0.0405,-0.0525,-0.053,-0.0476,-0.0533,-0.0546,-0.0575,-0.0599,-0.0605,-0.0611,-0.0614,-0.0632,-0.0633,-0.0633,-0.06,-0.0639,-0.0639,-0.0639,-0.0629,-0.0629,-0.0629,0,0,0,0,0,0,-0.0394,-0.0408,-0.0522,-0.047,-0.0484,-0.0536,-0.0567,-0.0576,-0.0586,-0.0612,-0.0617,-0.0614,-0.0633,-0.0633,-0.0616,-0.0602,-0.0639,-0.0639,-0.0629,-0.0629,-0.0629,-0.0541,0,0,0,0,0,0,-0.0389,-0.0406,-0.0413,-0.0471,-0.0487,-0.0518,-0.0567,-0.0577,-0.0594,-0.0598,-0.0616,-0.0618,-0.0634,-0.0616,-0.0616,-0.0602,-0.0638,-0.0629,-0.0629,-0.0629,-0.0544,-0.0538,-0.0533,0,0,0,0,0,-0.0383,-0.0383,-0.0413,-0.0427,-0.0501,-0.0517,-0.0523,-0.0561,-0.0593,-0.0577,-0.0597,-0.0618,-0.0617,-0.0615,-0.0615,-0.06,-0.0629,-0.0629,-0.0629,-0.0547,-0.054,-0.0533,0,0,0,0,0,0,-0.0303,-0.039,-0.0424,-0.0449,-0.0474,-0.0526,-0.0517,-0.0554,-0.0561,-0.0563,-0.0598,-0.06,-0.0582,-0.0606,-0.0604,-0.0603,-0.0634,-0.0633,-0.0572,-0.0565,-0.0559,-0.0539,-0.0638,0,0,0,0,0,-0.0294,-0.0321,-0.0389,-0.04,-0.0414,-0.0467,-0.0478,-0.0505,-0.0528,-0.0534,-0.0547,-0.0569,-0.0582,-0.0584,-0.0587,-0.0574,-0.061,-0.0575,-0.0569,-0.0564,-0.055,-0.0601,-0.0599,-0.0628,-0.0628,-0.0629,0,0,-0.0264,-0.0314,-0.0328,-0.0384,-0.0409,-0.0401,-0.0474,-0.0479,-0.0478,-0.053,-0.0512,-0.0535,-0.0572,-0.0559,-0.0556,-0.0576,-0.0573,-0.0563,-0.0558,-0.0547,-0.0601,-0.0598,-0.0595,-0.0628,-0.0628,-0.0628,0,0,-0.0205,-0.0262,-0.0262,-0.0279,-0.0318,-0.0342,-0.0342,-0.0386,-0.0414,-0.04,-0.0451,-0.0469,-0.0467,-0.0506,-0.0525,-0.0495,-0.0535,-0.0499,-0.0455,-0.0505,-0.0502,-0.05,-0.0532,-0.0533,-0.0504,-0.0504,-0.0504,0,-0.0162,-0.0184,-0.0253,-0.0246,-0.0255,-0.031,-0.0292,-0.0315,-0.0344,-0.0383,-0.0376,-0.0422,-0.0447,-0.0477,-0.0462,-0.048,-0.0504,-0.0472,-0.0495,-0.0495,-0.0494,-0.0527,-0.053,-0.05,-0.05,-0.05,-0.0501,0,-0.0105,-0.0114,-0.0105,-0.0125,-0.0135,-0.012,-0.0173,-0.0188,-0.0222,-0.0266,-0.0296,-0.0322,-0.0361,-0.0377,-0.0398,-0.0421,-0.0436,-0.0474,-0.0506,-0.0486,-0.0522,-0.0526,-0.0493,-0.0495,-0.0496,-0.0497,0,0,-0.0042,-0.0063,-0.0061,-0.0059,-0.0078,-0.0083,-0.0089,-0.0137,-0.0167,-0.0182,-0.0222,-0.0243,-0.0278,-0.0303,-0.0345,-0.0381,-0.0395,-0.0409,-0.0414,-0.0427,-0.0482,-0.0478,-0.0484,-0.043,-0.043,-0.0431,-0.0504,0,0.0024,0.0061,0.0023,0.007,0.0085,0.0018,0.0012,-0.0044,-0.0091,-0.0131,-0.0207,-0.0223,-0.0246,-0.0251,-0.0291,-0.037,-0.0404,-0.037,-0.0511,-0.0515,-0.0504,-0.0488,-0.0451,-0.0511,-0.0509,-0.051,-0.0511,0,0.0076,0.0096,0.0144,0.0128,0.0123,0.0152,0.0092,0.0081,-0.0014,-0.006,-0.0105,-0.0159,-0.0206,-0.0222,-0.0331,-0.0301,-0.0371,-0.0432,-0.0438,-0.0466,-0.052,-0.0536,-0.0521,-0.052,-0.0519,-0.0518,-0.0518,0,0.013,0.0163,0.0202,0.0206,0.0197,0.0188,0.019,0.0108,0.0078,0.0006,-0.0008,-0.0099,-0.0107,-0.0213,-0.0328,-0.0325,-0.0454,-0.0486,-0.0551,-0.0552,-0.0564,-0.0564,-0.0563,-0.0563,-0.0562,-0.0562,-0.0562,0,0.0185,0.0215,0.0243,0.0263,0.0304,0.0269,0.028,0.0233,0.0186,0.0166,0.0068,0.0046,-0.0097,-0.0198,-0.0317,-0.0438,-0.0452,-0.0529,-0.0569,-0.0532,-0.0528,-0.0576,-0.0576,-0.0565,-0.0564,-0.0564,-0.0563,0,0.0218,0.0236,0.0287,0.0314,0.0329,0.0364,0.0378,0.0371,0.0329,0.0311,0.0304,0.0171,0.0054,-0.0115,-0.0297,-0.04,-0.0547,-0.0594,-0.0526,-0.0555,-0.0611,-0.0607,-0.0662,-0.0662,-0.0663,-0.0663,-0.0663,0,0.0237,0.0269,0.0334,0.038,0.0406,0.0459,0.0478,0.0452,0.0439,0.0382,0.0367,0.0266,0.0168,-0.0095,-0.03,-0.0511,-0.0546,-0.0606,-0.0597,-0.0587,-0.0621,-0.0616,-0.0611,-0.0582,-0.0581,-0.0581,-0.058,0,0.0283,0.0305,0.0346,0.0444,0.0504,0.0548,0.0582,0.0586,0.0542,0.0521,0.046,0.0391,0.0175,-0.004,-0.0306,-0.0445,-0.0569,-0.0603,-0.0632,-0.0554,-0.0516,-0.0547,-0.0545,-0.0577,-0.0578,-0.0578,-0.0578,-0.0578,0.032,0.0362,0.0422,0.0501,0.0573,0.0615,0.0641,0.0642,0.063,0.0595,0.0534,0.0468,0.0239,-0.0081,-0.0319,-0.0529,-0.0536,-0.0611,-0.0611,-0.0611,-0.058,-0.0544,-0.0604,-0.0605,-0.0605,-0.0606,-0.0606,0,0.0365,0.0406,0.0475,0.0561,0.0617,0.0661,0.068,0.0672,0.0651,0.0674,0.0633,0.0445,0.0214,-0.0014,-0.0323,-0.0541,-0.055,-0.059,-0.0562,-0.0564,-0.0566,-0.0532,-0.0545,-0.0545,-0.0545,-0.0546,0,0,0.0394,0.0444,0.0457,0.0561,0.0635,0.0695,0.0703,0.0693,0.0696,0.0687,0.0692,0.0632,0.0326,0.0114,-0.0187,-0.0354,-0.0399,-0.0378,-0.0406,-0.0341,-0.034,-0.0562,-0.051,0,0,0,0,0]}],[{"header":{"parameterUnit":"m.s-1","parameterCategory":2,"la1":30.2991,"la2":30.254,"lo1":-89.0895,"lo2":-89.0444,"dy":0.0017,"dx":0.0017,"nx":28,"ny":28,"refTime":"2024-08-22T03:00:00:Z","depth":"4","parameterNumber":2,"parameterNumberName":"U-component_of_CURRENTS"},"data":[0,0,0,0,0,0,0,0,0,0,0,0,0,0,0,0,0,0,0,0,0,0,0,0,0,0,0,0,0,0,0,0,0,0,0,0,0,0,0,0,0,0,0,0,0,0,0,0,0,0,0,0,0,0,0,0,0,0,0.0615,0.0616,0,0.063,0.063,0.063,0.0652,0.0653,0.0653,0.0654,0.0718,0.0719,0.072,0,0,0,0,0,0,0,0,0,0,0,0,0,0.0588,0.0588,0.0615,0.0616,0.0616,0.063,0.063,0.063,0.0652,0.0653,0.0654,0.0654,0.0718,0.0719,0.072,0,0,0,0,0,0,0,0,0,0,0,0,0,0.0598,0.0588,0.0615,0.0632,0.0633,0.063,0.063,0.063,0.0652,0.0653,0.0654,0.0655,0.0717,0.0719,0.072,0.0709,0,0,0.0725,0.0726,0,0,0,0,0,0,0,0,0.0597,0.0598,0.0629,0.063,0.0633,0.0643,0.0644,0.066,0.0651,0.0641,0.0654,0.0655,0.0699,0.0702,0.0697,0.0712,0.0714,0.0725,0.0726,0.0727,0.0727,0,0,0,0,0,0,0,0.0596,0.0598,0.0618,0.0629,0.0632,0.0632,0.0634,0.0646,0.0662,0.0642,0.0645,0.0651,0.07,0.0695,0.0699,0.0715,0.0725,0.0727,0.0728,0.0728,0.0822,0.0824,0,0,0,0,0,0,0.0601,0.0597,0.0617,0.0618,0.0621,0.0632,0.0634,0.0636,0.0661,0.0666,0.065,0.0652,0.0692,0.0697,0.0701,0.076,0.0727,0.0728,0.0729,0.0821,0.0823,0.0824,0,0,0,0,0,0,0.06,0.0603,0.0617,0.0611,0.0614,0.0632,0.0633,0.0636,0.0655,0.0668,0.0673,0.0671,0.0693,0.0699,0.0746,0.076,0.0729,0.0731,0.0819,0.0821,0.0824,0.0833,0,0,0,0,0,0,0.0599,0.0602,0.0612,0.0611,0.0614,0.0632,0.0632,0.0635,0.0658,0.0661,0.0686,0.0692,0.0694,0.0744,0.0748,0.0762,0.0732,0.0817,0.082,0.0823,0.0831,0.0835,0.0839,0,0,0,0,0,0.0598,0.0604,0.0612,0.0615,0.0624,0.0633,0.0634,0.0648,0.0658,0.0669,0.0699,0.0692,0.0765,0.0747,0.0751,0.0766,0.0816,0.0819,0.0823,0.0829,0.0834,0.0839,0,0,0,0,0,0,0.0598,0.0607,0.0616,0.0625,0.0639,0.0639,0.0652,0.066,0.0687,0.0702,0.0711,0.0719,0.0762,0.0771,0.075,0.0805,0.079,0.0794,0.0793,0.0798,0.0803,0.0807,0.0733,0,0,0,0,0,0.0603,0.0609,0.062,0.063,0.064,0.065,0.0659,0.0671,0.0691,0.0704,0.0731,0.0758,0.0774,0.0794,0.0813,0.0843,0.0844,0.0859,0.0863,0.0866,0.0875,0.0882,0.0887,0.0836,0.0836,0.0836,0,0,0.0602,0.0612,0.0614,0.0632,0.0643,0.0663,0.0658,0.068,0.0706,0.0707,0.0764,0.0775,0.0787,0.0821,0.0841,0.0834,0.0884,0.0871,0.0873,0.088,0.0886,0.0891,0.0895,0.0838,0.0838,0.0837,0,0,0.0612,0.0619,0.0634,0.0649,0.0677,0.0683,0.0696,0.0721,0.0743,0.0792,0.0794,0.0821,0.0865,0.0866,0.0871,0.0914,0.0904,0.0924,0.0949,0.0955,0.0959,0.0962,0.0973,0.0977,0.0928,0.0928,0.0928,0,0.062,0.0635,0.064,0.0666,0.0682,0.0697,0.0721,0.0741,0.0785,0.0803,0.0823,0.0871,0.0884,0.0895,0.0916,0.0921,0.0927,0.0921,0.0958,0.0961,0.0964,0.0974,0.0979,0.0929,0.0929,0.0929,0.0928,0,0.0642,0.0661,0.0673,0.0708,0.0724,0.0746,0.0774,0.0807,0.0841,0.086,0.0902,0.0919,0.0947,0.0949,0.095,0.0971,0.097,0.0957,0.0937,0.097,0.0979,0.0983,0.093,0.093,0.0929,0.0929,0,0,0.0646,0.068,0.069,0.0706,0.0748,0.0759,0.0806,0.0838,0.0865,0.0915,0.0948,0.0976,0.0986,0.0993,0.0987,0.0995,0.1023,0.0995,0.0994,0.0992,0.1046,0.1035,0.1038,0.1014,0.1015,0.1015,0.1044,0,0.0668,0.0708,0.0725,0.0764,0.0781,0.0806,0.084,0.0873,0.0913,0.0954,0.0967,0.1003,0.1001,0.1017,0.1025,0.1026,0.1036,0.1018,0.1028,0.1028,0.1002,0.1043,0.1018,0.1047,0.1048,0.1049,0.1049,0,0.0696,0.0711,0.0753,0.0777,0.079,0.0818,0.0862,0.0898,0.0946,0.0979,0.1012,0.1033,0.1061,0.1054,0.1075,0.1067,0.1068,0.1062,0.1063,0.1052,0.1025,0.101,0.1056,0.1056,0.1055,0.1055,0.1054,0,0.069,0.0733,0.0762,0.0775,0.081,0.0834,0.0859,0.0907,0.0941,0.1,0.1034,0.1064,0.1096,0.1099,0.1122,0.1102,0.1142,0.1106,0.1091,0.109,0.1083,0.108,0.1118,0.1118,0.1118,0.1118,0.1118,0,0.0701,0.0721,0.0761,0.0773,0.0799,0.0832,0.0875,0.0905,0.0961,0.1,0.1049,0.1084,0.1114,0.1146,0.114,0.1147,0.1162,0.1109,0.1101,0.1089,0.1085,0.1086,0.1082,0.1119,0.1119,0.1119,0.1119,0,0.0684,0.0721,0.0745,0.0784,0.0799,0.0819,0.0877,0.0901,0.0965,0.102,0.1046,0.1118,0.1168,0.1192,0.1209,0.1178,0.1175,0.1168,0.1178,0.1167,0.1107,0.1104,0.1141,0.1141,0.1141,0.1141,0.1141,0,0.0665,0.0683,0.0741,0.0756,0.0775,0.0812,0.0833,0.0898,0.0929,0.1033,0.105,0.1138,0.118,0.1195,0.1221,0.1222,0.1204,0.1191,0.1128,0.1124,0.1112,0.1108,0.1105,0.1141,0.1141,0.1141,0.1141,0,0.0614,0.066,0.068,0.0718,0.0748,0.0774,0.0814,0.0838,0.0919,0.0985,0.1047,0.1091,0.1153,0.1181,0.1209,0.1196,0.1191,0.1189,0.1188,0.1128,0.1124,0.1111,0.1108,0.1141,0.1141,0.1141,0.1141,0,0.0572,0.0584,0.0635,0.0664,0.0701,0.0724,0.0755,0.0797,0.0845,0.0961,0.0984,0.1074,0.1148,0.117,0.1188,0.1196,0.1162,0.1104,0.1106,0.1107,0.1085,0.1073,0.108,0,0,0,0,0,0.0517,0.0542,0.0566,0.0605,0.0644,0.0671,0.0731,0.0768,0.0857,0.0882,0.0934,0.0993,0.1054,0.11,0.1099,0.1165,0.1157,0.1159,0.1088,0.114,0.114,0.1119,0,0,0,0,0,0,0.0486,0.0518,0.0548,0.0553,0.0568,0.0605,0.0647,0.0706,0.0729,0.0825,0.0863,0.0939,0.1007,0.1044,0.108,0.1094,0.1033,0.1217,0.1215,0.1139,0.114,0.114,0.1119,0,0,0,0,0]},{"header":{"parameterUnit":"m.s-1","parameterCategory":2,"la1":30.2991,"la2":30.254,"lo1":-89.0895,"lo2":-89.0444,"dy":0.0017,"dx":0.0017,"nx":28,"ny":28,"refTime":"2024-08-22T03:00:00:Z","depth":"4","parameterNumber":3,"parameterNumberName":"V-component_of_CURRENTS"},"data":[0,0,0,0,0,0,0,0,0,0,0,0,0,0,0,0,0,0,0,0,0,0,0,0,0,0,0,0,0,0,0,0,0,0,0,0,0,0,0,0,0,0,0,0,0,0,0,0,0,0,0,0,0,0,0,0,0,0,0.0267,0.0267,0,0.0211,0.021,0.021,0.0192,0.0192,0.0193,0.0193,0.0019,0.0014,0.0009,0,0,0,0,0,0,0,0,0,0,0,0,0,0.0273,0.0273,0.0267,0.0267,0.0266,0.0211,0.021,0.0209,0.0192,0.0192,0.0193,0.0193,0.0021,0.0015,0.0009,0,0,0,0,0,0,0,0,0,0,0,0,0,0.0247,0.0273,0.0267,0.0253,0.0251,0.0212,0.021,0.0209,0.0191,0.0192,0.0193,0.0194,0.0023,0.0015,0.0008,-0.0055,0,0,-0.0016,-0.0019,0,0,0,0,0,0,0,0,0.0248,0.0246,0.0255,0.0254,0.0252,0.0212,0.0149,0.0116,0.0191,0.0211,0.0193,0.0194,0.0074,0.0062,0.0047,-0.0063,-0.007,-0.0016,-0.0021,-0.0024,-0.0027,0,0,0,0,0,0,0,0.025,0.0248,0.0242,0.0255,0.0253,0.022,0.0218,0.0142,0.0134,0.0209,0.0209,0.0207,0.0072,0.0055,0.0043,-0.0073,-0.0016,-0.0023,-0.0028,-0.0031,-0.027,-0.0271,0,0,0,0,0,0,0.0266,0.025,0.0244,0.0241,0.0255,0.022,0.0217,0.0221,0.0138,0.0128,0.0206,0.0206,0.0068,0.0052,0.0037,-0.0063,-0.0024,-0.0031,-0.0036,-0.0268,-0.027,-0.0272,0,0,0,0,0,0,0.0267,0.0266,0.0246,0.0246,0.0241,0.022,0.0224,0.022,0.0206,0.0137,0.0124,0.0198,0.0068,0.0047,-0.0043,-0.0069,-0.0035,-0.0042,-0.0266,-0.0269,-0.0271,-0.0249,0,0,0,0,0,0,0.0267,0.0267,0.0272,0.0247,0.0242,0.0213,0.0224,0.0218,0.0205,0.0205,0.0125,0.011,0.0067,-0.0031,-0.0051,-0.0079,-0.0048,-0.0264,-0.0267,-0.027,-0.0248,-0.0251,-0.0253,0,0,0,0,0,0.0268,0.0266,0.0272,0.0272,0.0251,0.0212,0.0205,0.0191,0.0204,0.0184,0.0131,0.0113,-0.0065,-0.004,-0.0062,-0.0092,-0.0262,-0.0266,-0.027,-0.0246,-0.025,-0.0253,0,0,0,0,0,0,0.026,0.0263,0.027,0.0268,0.0241,0.021,0.0195,0.0191,0.0138,0.0135,0.0081,0.006,-0.0028,-0.0068,-0.0038,-0.0172,-0.0164,-0.0173,-0.0139,-0.0143,-0.0145,-0.0135,-0.0054,0,0,0,0,0,0.0266,0.0273,0.0256,0.0252,0.0242,0.0221,0.0206,0.0195,0.015,0.013,0.007,0.0005,-0.0064,-0.0106,-0.0179,-0.0258,-0.028,-0.0291,-0.0293,-0.0295,-0.0304,-0.0348,-0.0355,-0.0285,-0.0285,-0.0285,0,0,0.0263,0.0265,0.0269,0.0252,0.0235,0.0194,0.0213,0.0185,0.0145,0.0113,0.003,-0.0015,-0.0088,-0.0174,-0.0216,-0.0209,-0.0328,-0.03,-0.0301,-0.0309,-0.0353,-0.036,-0.0365,-0.0288,-0.0287,-0.0287,0,0,0.0241,0.0261,0.0248,0.0224,0.0199,0.018,0.0174,0.0132,0.0111,0.0028,0.0003,-0.0052,-0.0175,-0.0216,-0.0255,-0.032,-0.0343,-0.0345,-0.0352,-0.0395,-0.0401,-0.0406,-0.0435,-0.0443,-0.0343,-0.0343,-0.0343,0,0.0232,0.0222,0.0232,0.0198,0.018,0.0173,0.0133,0.0098,0.0028,0.001,-0.0005,-0.014,-0.0195,-0.0271,-0.0293,-0.0325,-0.0349,-0.0327,-0.0396,-0.0401,-0.0407,-0.0436,-0.0445,-0.0342,-0.0343,-0.0343,-0.0343,0,0.0187,0.0176,0.0162,0.0127,0.0102,0.0069,0.0031,-0.0002,-0.0024,-0.0054,-0.0131,-0.02,-0.0268,-0.0295,-0.0322,-0.0385,-0.0389,-0.0391,-0.0376,-0.0412,-0.0441,-0.0451,-0.0342,-0.0342,-0.0342,-0.0342,0,0,0.0171,0.014,0.0133,0.012,0.0069,0.0047,-0.0013,-0.0058,-0.0074,-0.0151,-0.0186,-0.029,-0.0292,-0.0335,-0.0361,-0.0401,-0.0455,-0.0413,-0.0415,-0.0424,-0.0546,-0.0483,-0.0487,-0.0466,-0.0468,-0.0469,-0.0547,0,0.0129,0.0082,0.0068,0.0013,-0.0013,-0.0029,-0.0075,-0.0113,-0.0149,-0.0193,-0.0238,-0.0298,-0.0318,-0.0338,-0.0383,-0.044,-0.0482,-0.0434,-0.0528,-0.0531,-0.0455,-0.0497,-0.0475,-0.0554,-0.0556,-0.0558,-0.0559,0,0.0084,0.0065,0.0018,-0.0006,-0.0018,-0.0057,-0.0086,-0.0131,-0.0182,-0.0205,-0.0254,-0.0293,-0.0364,-0.0372,-0.0485,-0.0454,-0.0505,-0.0545,-0.0549,-0.0506,-0.0486,-0.0518,-0.0577,-0.0575,-0.0574,-0.0573,-0.0572,0,0.0089,0.0033,0.0011,-0.0007,-0.0049,-0.0063,-0.0087,-0.0129,-0.0147,-0.0208,-0.0223,-0.0309,-0.0349,-0.0435,-0.051,-0.0509,-0.0624,-0.0629,-0.0622,-0.0618,-0.0657,-0.0651,-0.0715,-0.0715,-0.0715,-0.0715,-0.0715,0,0.0062,0.004,0.0017,0.0003,-0.0016,-0.0049,-0.007,-0.0098,-0.0135,-0.0147,-0.0221,-0.0246,-0.0369,-0.044,-0.0517,-0.0589,-0.063,-0.0635,-0.0639,-0.0647,-0.0639,-0.0664,-0.0657,-0.0718,-0.0717,-0.0717,-0.0716,0,0.0062,0.0048,0.0024,-0.0006,-0.0012,-0.0025,-0.0049,-0.0059,-0.0095,-0.0115,-0.0133,-0.0216,-0.0302,-0.0408,-0.0539,-0.0581,-0.0664,-0.0678,-0.067,-0.0671,-0.0634,-0.0625,-0.0697,-0.0696,-0.0695,-0.0694,-0.0693,0,0.0052,0.0043,0.003,0.0028,0.0013,-0.0004,-0.0007,-0.0036,-0.0043,-0.0085,-0.009,-0.0175,-0.0233,-0.0362,-0.0484,-0.0621,-0.0631,-0.0678,-0.0675,-0.0638,-0.0635,-0.0628,-0.0622,-0.0691,-0.0691,-0.069,-0.069,0,0.0028,0.0035,0.0026,0.0036,0.0035,0.0035,0.0026,0.0035,0.0013,-0.002,-0.0035,-0.011,-0.0199,-0.0323,-0.0422,-0.0523,-0.0654,-0.0665,-0.0669,-0.0667,-0.0631,-0.0628,-0.0622,-0.0686,-0.0686,-0.0687,-0.0687,0,0.0011,0.0012,0.002,0.0031,0.0047,0.0071,0.0065,0.0067,0.0065,0.0034,0.0032,-0.0069,-0.0141,-0.0272,-0.0366,-0.0454,-0.0485,-0.0514,-0.0526,-0.0532,-0.0454,-0.0382,-0.0373,0,0,0,0,0,-0.0019,-0.0005,0.0009,0.0036,0.0066,0.0075,0.0087,0.0083,0.0078,0.0088,0.0066,-0.0004,-0.0134,-0.0208,-0.0283,-0.0366,-0.0518,-0.0458,-0.0562,-0.0662,-0.0667,-0.0597,0,0,0,0,0,0,-0.0041,-0.0028,0.0003,0.0048,0.0074,0.0104,0.0119,0.0115,0.0119,0.0104,0.0037,-0.0009,-0.0145,-0.0082,-0.0278,-0.0311,-0.0383,-0.0532,-0.0533,-0.0659,-0.0663,-0.0667,-0.0597,0,0,0,0,0]}]]